Showing default

PELICAN-2 3009, 62631

Orbit data source: Space-Track

PELICAN-2 3009, 62631 is a payload satellite owned by Planet (US) in SSO that was launched on Tue, 14 Jan 2025 UTC via an FALCON 9 launch vehicle from the Air Force Western Test Range (AFWTR). Payload-class satellites include a variety of spacecraft equipped with specific instruments for various scientific and technological missions. These include communications satellites like Starlink; space stations such as the ISS; scientific satellites like the Hubble; Earth observation satellites from companies like Planet Labs, Umbra, and HawkEye 360; GPS; miniature CubeSats for education and research; and military/defense satellites.

Loading next visibility...
Identifier
62631, 2025-009Y
Orbit
SSO
Country
Flag of USUS
Related business
Manufacturer
Planet
Mission
Operational Commercial Imaging
Bus & Motor
PELICAN, XE AOCS
Mass
160 kg wet, 146 kg dry
Launch date (UTC)
2025-01-14 (1 year ago)
Launch vehicle
FALCON 9
Launch site
Air Force Western Test Range (AFWTR)
Object type
Payload
Rocket body
Debris
Shape & HBR
Box + 2 Pan, 1.0 m
Radar Cross Section
1.955 m², Large (>1 m²)

Expand to show TLE details & history
Last TLE update: 2 days ago

TLE from 2 days ago
0 PELICAN-2 3009
1 62631U 25009Y   26105.82093691  .00027871  00000-0  68988-3 0  9993
2 62631  97.3788 196.5429 0003275 134.6598 225.4916 15.40396189 69955
Epoch: 2026-04-15T19:42Z
TLE epoch observation values (Epoch: 2026-04-15T19:42:08.949Z)
Latitude
0.00004°
Longitude
57.02827°
Altitude
449.625 km
Speed
7.642 km/s
True Right ascension
13h 06m 10s
True Declination
0° 00' 00"
Sunlit
Object was in full shadow at epoch
Visualization orbit readout
Latitude
Unknown
Longitude
Unknown
Altitude
Unknown
Speed
Unknown
Apparent Right ascension
Unknown
Apparent Declination
Unknown
Sunlit
N/A
Visualization observer readout
Local Sidereal Time
15:58:12
Azimuth
Unknown
Elevation
Unknown
Doppler factor
Unknown
Orbital elements
Apogee altitude
444.11 km
Perigee altitude
439.643 km
Semi-major axis
6,820.014 km
Eccentricity
0.00033
Inclination
97.3788°
RAAN
196.5429°
Arg. of periapsis
134.6598°
True anomaly
225.46484°
Mean anomaly
225.4916°
Eccentric anomaly
225.47822°
Mean motion
3.85359 °/min
Orbital period
93.42 mins
BSTAR
0.00068988
Loading maneuver chart data...
Computing Atmospheric mass density...
Loading historical data...
Loading historical data...
Loading historical data...
Loading historical data...
Loading historical data...
Loading historical data...
Loading historical data...

Documentation

Showing up to 5 results
|